"datetime","temp","dp","rain_mm","uv","solar","mb","wind_mph","gust_mph","windchill","rh"
"2022-06-19 00:00:00",10.4,9.2,0.0,0.0,0,1013.9,1,2,"",92
"2022-06-19 00:01:00",10.4,9.2,0.0,0.0,0,1013.9,0,1,"",92
"2022-06-19 00:02:00",10.4,9.2,0.0,0.0,0,1013.8,0,1,"",92
"2022-06-19 00:03:00",10.4,9.2,0.0,0.0,0,1013.8,1,2,"",92
"2022-06-19 00:04:00",10.5,9.3,0.0,0.0,0,1013.8,0,2,"",92
"2022-06-19 00:05:00",10.4,9.2,0.0,0.0,0,1013.8,0,1,"",92
"2022-06-19 00:06:00",10.4,9.2,0.0,0.0,0,1013.9,1,2,"",92
"2022-06-19 00:07:00",10.5,9.3,0.0,0.0,0,1013.9,1,2,"",92
"2022-06-19 00:08:00",10.5,9.3,0.0,0.0,0,1014.0,1,2,"",92
"2022-06-19 00:09:00",10.5,9.3,0.0,0.0,0,1014.0,1,1,"",92
"2022-06-19 00:10:00",10.4,9.2,0.0,0.0,0,1014.0,1,2,"",92
"2022-06-19 00:11:00",10.4,9.2,0.0,0.0,0,1014.0,1,2,"",92
"2022-06-19 00:12:00",10.4,9.2,0.0,0.0,0,1014.0,1,2,"",92
"2022-06-19 00:13:00",10.4,9.2,0.0,0.0,0,1014.0,1,1,"",92
"2022-06-19 00:14:00",10.4,9.2,0.0,0.0,0,1013.9,1,2,"",92
"2022-06-19 00:15:00",10.4,9.2,0.0,0.0,0,1013.8,1,2,"",92
"2022-06-19 00:16:00",10.4,9.2,0.0,0.0,0,1013.8,1,2,"",92
"2022-06-19 00:17:00",10.4,9.2,0.0,0.0,0,1013.7,2,3,"",92
"2022-06-19 00:18:00",10.4,9.2,0.0,0.0,0,1013.6,2,3,"",92
"2022-06-19 00:19:00",10.4,9.2,0.0,0.0,0,1013.6,1,1,"",92
"2022-06-19 00:20:00",10.4,9.2,0.0,0.0,0,1013.6,1,2,"",92
"2022-06-19 00:21:00",10.4,9.2,0.0,0.0,0,1013.6,0,1,"",92
"2022-06-19 00:22:00",10.4,9.2,0.0,0.0,0,1013.6,1,2,"",92
"2022-06-19 00:23:00",10.4,9.2,0.0,0.0,0,1013.6,1,2,"",92
"2022-06-19 00:24:00",10.3,9.1,0.0,0.0,0,1013.5,1,2,"",92
"2022-06-19 00:25:00",10.4,9.2,0.0,0.0,0,1013.5,1,3,"",92
"2022-06-19 00:26:00",10.3,9.1,0.0,0.0,0,1013.5,1,2,"",92
"2022-06-19 00:27:00",10.4,9.2,0.0,0.0,0,1013.5,1,3,"",92
"2022-06-19 00:28:00",10.4,9.2,0.0,0.0,0,1013.5,1,2,"",92
"2022-06-19 00:29:00",10.4,9.2,0.0,0.0,0,1013.6,1,2,"",92
"2022-06-19 00:30:00",10.4,9.2,0.0,0.0,0,1013.7,2,5,"",92
"2022-06-19 00:31:00",10.4,9.2,0.0,0.0,0,1013.7,1,2,"",92
"2022-06-19 00:32:00",10.3,9.1,0.0,0.0,0,1013.6,2,5,"",92
"2022-06-19 00:33:00",10.4,9.2,0.0,0.0,0,1013.6,2,5,"",92
"2022-06-19 00:34:00",10.3,8.9,0.0,0.0,0,1013.7,2,3,"",91
"2022-06-19 00:35:00",10.4,9.0,0.0,0.0,0,1013.8,1,3,"",91
"2022-06-19 00:36:00",10.4,9.0,0.0,0.0,0,1013.9,1,3,"",91
"2022-06-19 00:37:00",10.5,9.3,0.0,0.0,0,1014.0,1,3,"",92
"2022-06-19 00:38:00",10.5,9.3,0.0,0.0,0,1014.0,1,3,"",92
"2022-06-19 00:39:00",10.5,9.1,0.0,0.0,0,1013.9,2,3,"",91
"2022-06-19 00:40:00",10.5,9.3,0.0,0.0,0,1013.9,0,1,"",92
"2022-06-19 00:41:00",10.6,9.2,0.0,0.0,0,1013.9,1,2,"",91
"2022-06-19 00:42:00",10.6,9.4,0.0,0.0,0,1013.9,1,2,"",92
"2022-06-19 00:43:00",10.6,9.4,0.0,0.0,0,1013.8,1,2,"",92
"2022-06-19 00:44:00",10.6,9.4,0.0,0.0,0,1013.8,1,2,"",92
"2022-06-19 00:45:00",10.6,9.4,0.0,0.0,0,1013.7,1,2,"",92
"2022-06-19 00:46:00",10.6,9.4,0.0,0.0,0,1013.8,2,3,"",92
"2022-06-19 00:47:00",10.6,9.4,0.0,0.0,0,1013.7,1,2,"",92
"2022-06-19 00:48:00",10.6,9.4,0.0,0.0,0,1013.7,1,2,"",92
"2022-06-19 00:49:00",10.6,9.4,0.0,0.0,0,1013.7,1,3,"",92
"2022-06-19 00:50:00",10.6,9.4,0.0,0.0,0,1013.7,1,3,"",92
"2022-06-19 00:51:00",10.6,9.4,0.0,0.0,0,1013.6,1,1,"",92
"2022-06-19 00:52:00",10.6,9.4,0.0,0.0,0,1013.6,1,2,"",92
"2022-06-19 00:53:00",10.6,9.4,0.0,0.0,0,1013.5,1,2,"",92
"2022-06-19 00:54:00",10.5,9.3,0.0,0.0,0,1013.5,1,2,"",92
"2022-06-19 00:55:00",10.5,9.3,0.0,0.0,0,1013.4,1,3,"",92
"2022-06-19 00:56:00",10.5,9.3,0.0,0.0,0,1013.4,2,3,"",92
"2022-06-19 00:57:00",10.4,9.2,0.0,0.0,0,1013.3,2,3,"",92
"2022-06-19 00:58:00",10.4,9.2,0.0,0.0,0,1013.3,1,4,"",92
"2022-06-19 00:59:00",10.4,9.0,0.0,0.0,0,1013.3,3,5,"",91
"2022-06-19 01:00:00",10.4,9.0,0.0,0.0,0,1013.4,1,3,"",91
"2022-06-19 01:01:00",10.4,9.2,0.0,0.0,0,1013.4,1,2,"",92
"2022-06-19 01:02:00",10.4,9.2,0.0,0.0,0,1013.5,1,2,"",92
"2022-06-19 01:03:00",10.4,9.0,0.0,0.0,0,1013.5,2,4,"",91
"2022-06-19 01:04:00",10.4,9.2,0.0,0.0,0,1013.5,1,5,"",92
"2022-06-19 01:05:00",10.4,9.2,0.0,0.0,0,1013.6,1,2,"",92
"2022-06-19 01:06:00",10.4,9.0,0.0,0.0,0,1013.6,1,2,"",91
"2022-06-19 01:07:00",10.4,9.0,0.0,0.0,0,1013.6,2,3,"",91
"2022-06-19 01:08:00",10.4,9.0,0.0,0.0,0,1013.7,2,5,"",91
"2022-06-19 01:09:00",10.4,9.0,0.0,0.0,0,1013.7,1,3,"",91
"2022-06-19 01:10:00",10.4,9.0,0.0,0.0,0,1013.7,2,4,"",91
"2022-06-19 01:11:00",10.4,9.0,0.0,0.0,0,1013.7,1,2,"",91
"2022-06-19 01:12:00",10.4,9.0,0.0,0.0,0,1013.7,1,2,"",91
"2022-06-19 01:13:00",10.4,9.0,0.0,0.0,0,1013.7,1,2,"",91
"2022-06-19 01:14:00",10.3,8.9,0.0,0.0,0,1013.8,1,3,"",91
"2022-06-19 01:15:00",10.3,8.9,0.0,0.0,0,1013.8,2,4,"",91
"2022-06-19 01:16:00",10.3,8.9,0.0,0.0,0,1013.8,2,4,"",91
"2022-06-19 01:17:00",10.3,8.9,0.0,0.0,0,1013.7,1,2,"",91
"2022-06-19 01:18:00",10.3,8.9,0.0,0.0,0,1013.6,1,2,"",91
"2022-06-19 01:19:00",10.3,8.9,0.0,0.0,0,1013.6,1,2,"",91
"2022-06-19 01:20:00",10.3,8.9,0.0,0.0,0,1013.6,1,2,"",91
"2022-06-19 01:21:00",10.3,8.9,0.0,0.0,0,1013.5,1,3,"",91
"2022-06-19 01:22:00",10.3,8.9,0.0,0.0,0,1013.5,2,3,"",91
"2022-06-19 01:23:00",10.3,8.9,0.0,0.0,0,1013.5,1,3,"",91
"2022-06-19 01:24:00",10.3,8.9,0.0,0.0,0,1013.5,2,2,"",91
"2022-06-19 01:25:00",10.3,8.9,0.0,0.0,0,1013.5,1,2,"",91
"2022-06-19 01:26:00",10.3,8.9,0.0,0.0,0,1013.4,1,2,"",91
"2022-06-19 01:27:00",10.3,8.9,0.0,0.0,0,1013.4,1,2,"",91
"2022-06-19 01:28:00",10.2,9.0,0.0,0.0,0,1013.3,2,3,"",92
"2022-06-19 01:29:00",10.2,9.0,0.0,0.0,0,1013.4,2,3,"",92
"2022-06-19 01:30:00",10.3,9.1,0.0,0.0,0,1013.3,2,3,"",92
"2022-06-19 01:31:00",10.3,9.1,0.0,0.0,0,1013.3,1,2,"",92
"2022-06-19 01:32:00",10.3,9.1,0.0,0.0,0,1013.3,2,7,"",92
"2022-06-19 01:33:00",10.2,9.0,0.0,0.0,0,1013.2,2,7,"",92
"2022-06-19 01:34:00",10.2,9.0,0.0,0.0,0,1013.2,1,2,"",92
"2022-06-19 01:35:00",10.2,9.0,0.0,0.0,0,1013.1,1,3,"",92
"2022-06-19 01:36:00",10.2,9.0,0.0,0.0,0,1013.1,2,3,"",92
"2022-06-19 01:37:00",10.2,9.0,0.0,0.0,0,1013.0,2,5,"",92
"2022-06-19 01:38:00",10.1,8.9,0.0,0.0,0,1013.1,2,5,"",92
"2022-06-19 01:39:00",10.2,9.0,0.0,0.0,0,1013.0,2,6,"",92
"2022-06-19 01:40:00",10.1,8.9,0.0,0.0,0,1013.2,2,4,"",92
"2022-06-19 01:41:00",10.1,8.9,0.0,0.0,0,1013.2,2,3,"",92
"2022-06-19 01:42:00",10.1,8.9,0.0,0.0,0,1013.3,2,3,"",92
"2022-06-19 01:43:00",10.1,8.9,0.0,0.0,0,1013.4,1,2,"",92
"2022-06-19 01:44:00",10.1,8.9,0.0,0.0,0,1013.4,2,3,"",92
"2022-06-19 01:45:00",10.1,8.7,0.0,0.0,0,1013.4,1,3,"",91
"2022-06-19 01:46:00",10.1,8.9,0.0,0.0,0,1013.4,1,2,"",92
"2022-06-19 01:47:00",10.1,8.7,0.0,0.0,0,1013.3,1,2,"",91
"2022-06-19 01:48:00",10.0,8.8,0.0,0.0,0,1013.4,1,2,"",92
"2022-06-19 01:49:00",10.0,8.8,0.0,0.0,0,1013.4,0,2,"",92
"2022-06-19 01:50:00",10.0,8.8,0.0,0.0,0,1013.4,0,2,"",92
"2022-06-19 01:51:00",9.9,8.7,0.0,0.0,0,1013.4,0,1,"",92
"2022-06-19 01:52:00",9.9,8.7,0.0,0.0,0,1013.5,0,1,"",92
"2022-06-19 01:53:00",9.9,8.7,0.0,0.0,0,1013.6,1,3,"",92
"2022-06-19 01:54:00",9.9,8.7,0.0,0.0,0,1013.6,1,3,"",92
"2022-06-19 01:55:00",9.9,8.7,0.0,0.0,0,1013.6,3,8,8.1,92
"2022-06-19 01:56:00",9.9,8.7,0.0,0.0,0,1013.5,1,2,"",92
"2022-06-19 01:57:00",9.9,8.7,0.0,0.0,0,1013.6,1,2,"",92
"2022-06-19 01:58:00",10.0,8.8,0.0,0.0,0,1013.6,1,3,"",92
"2022-06-19 01:59:00",10.0,8.8,0.0,0.0,0,1013.6,1,2,"",92
"2022-06-19 02:00:00",10.1,8.9,0.0,0.0,0,1013.7,1,2,"",92
"2022-06-19 02:01:00",10.1,8.9,0.0,0.0,0,1013.7,1,3,"",92
"2022-06-19 02:02:00",10.1,8.9,0.0,0.0,0,1013.7,2,4,"",92
"2022-06-19 02:03:00",10.1,8.9,0.0,0.0,0,1013.7,1,2,"",92
"2022-06-19 02:04:00",10.1,8.9,0.0,0.0,0,1013.7,0,1,"",92
"2022-06-19 02:05:00",10.1,8.9,0.0,0.0,0,1013.6,1,2,"",92
"2022-06-19 02:06:00",10.1,8.9,0.0,0.0,0,1013.5,1,3,"",92
"2022-06-19 02:07:00",10.1,8.9,0.0,0.0,0,1013.4,1,2,"",92
"2022-06-19 02:08:00",10.1,8.7,0.0,0.0,0,1013.3,2,4,"",91
"2022-06-19 02:09:00",10.1,8.9,0.0,0.0,0,1013.1,2,3,"",92
"2022-06-19 02:10:00",10.1,8.9,0.0,0.0,0,1012.9,2,5,"",92
"2022-06-19 02:11:00",10.1,8.9,0.0,0.0,0,1012.8,1,2,"",92
"2022-06-19 02:12:00",10.1,8.7,0.0,0.0,0,1012.7,2,3,"",91
"2022-06-19 02:13:00",10.1,8.9,0.0,0.0,0,1012.6,2,4,"",92
"2022-06-19 02:14:00",10.1,8.7,0.0,0.0,0,1012.5,2,5,"",91
"2022-06-19 02:15:00",10.1,8.9,0.0,0.0,0,1012.4,1,2,"",92
"2022-06-19 02:16:00",10.1,8.9,0.0,0.0,0,1012.4,2,4,"",92
"2022-06-19 02:17:00",10.1,8.7,0.0,0.0,0,1012.5,1,2,"",91
"2022-06-19 02:18:00",10.1,8.9,0.0,0.0,0,1012.5,1,3,"",92
"2022-06-19 02:19:00",10.2,9.0,0.0,0.0,0,1012.5,2,3,"",92
"2022-06-19 02:20:00",10.1,8.7,0.0,0.0,0,1012.6,2,4,"",91
"2022-06-19 02:21:00",10.1,8.7,0.0,0.0,0,1012.6,1,4,"",91
"2022-06-19 02:22:00",10.1,8.9,0.0,0.0,0,1012.6,1,4,"",92
"2022-06-19 02:23:00",10.1,8.9,0.0,0.0,0,1012.7,1,2,"",92
"2022-06-19 02:24:00",10.1,8.9,0.0,0.0,0,1012.6,1,2,"",92
"2022-06-19 02:25:00",10.1,8.9,0.0,0.0,0,1012.7,1,2,"",92
"2022-06-19 02:26:00",10.1,8.9,0.0,0.0,0,1012.8,1,2,"",92
"2022-06-19 02:27:00",10.1,8.9,0.0,0.0,0,1012.9,1,2,"",92
"2022-06-19 02:28:00",10.1,8.9,0.0,0.0,0,1013.0,0,2,"",92
"2022-06-19 02:29:00",10.1,8.9,0.0,0.0,0,1013.0,2,3,"",92
"2022-06-19 02:30:00",10.1,8.9,0.0,0.0,0,1012.9,2,2,"",92
"2022-06-19 02:31:00",10.1,8.9,0.0,0.0,0,1012.8,1,2,"",92
"2022-06-19 02:32:00",10.1,8.9,0.0,0.0,0,1012.7,1,2,"",92
"2022-06-19 02:33:00",10.2,9.0,0.0,0.0,0,1012.7,1,3,"",92
"2022-06-19 02:34:00",10.1,8.9,0.0,0.0,0,1012.8,0,2,"",92
"2022-06-19 02:35:00",10.2,9.0,0.0,0.0,0,1012.8,1,2,"",92
"2022-06-19 02:36:00",10.2,9.0,0.0,0.0,0,1012.8,1,3,"",92
"2022-06-19 02:37:00",10.2,9.0,0.0,0.0,0,1012.8,1,1,"",92
"2022-06-19 02:38:00",10.2,9.0,0.0,0.0,0,1012.8,1,3,"",92
"2022-06-19 02:39:00",10.2,8.8,0.0,0.0,0,1012.9,1,3,"",91
"2022-06-19 02:40:00",10.2,8.8,0.0,0.0,0,1012.9,1,2,"",91
"2022-06-19 02:41:00",10.2,8.8,0.0,0.0,0,1013.0,1,2,"",91
"2022-06-19 02:42:00",10.2,8.8,0.0,0.0,0,1013.0,1,2,"",91
"2022-06-19 02:43:00",10.2,8.8,0.0,0.0,0,1013.0,1,2,"",91
"2022-06-19 02:44:00",10.2,8.8,0.0,0.0,0,1013.0,2,3,"",91
"2022-06-19 02:45:00",10.2,8.8,0.0,0.0,0,1013.0,2,3,"",91
"2022-06-19 02:46:00",10.2,8.8,0.0,0.0,0,1013.0,2,7,"",91
"2022-06-19 02:47:00",10.2,8.8,0.0,0.0,0,1013.0,1,2,"",91
"2022-06-19 02:48:00",10.2,8.8,0.0,0.0,0,1013.0,1,2,"",91
"2022-06-19 02:49:00",10.2,8.8,0.0,0.0,0,1013.0,1,2,"",91
"2022-06-19 02:50:00",10.2,8.8,0.0,0.0,0,1013.1,1,2,"",91
"2022-06-19 02:51:00",10.2,8.8,0.0,0.0,0,1013.2,0,2,"",91
"2022-06-19 02:52:00",10.2,8.8,0.0,0.0,0,1013.2,1,3,"",91
"2022-06-19 02:53:00",10.2,8.8,0.0,0.0,0,1013.3,1,2,"",91
"2022-06-19 02:54:00",10.2,8.8,0.0,0.0,0,1013.3,1,2,"",91
"2022-06-19 02:55:00",10.2,8.8,0.0,0.0,0,1013.4,0,1,"",91
"2022-06-19 02:56:00",10.2,8.6,0.0,0.0,0,1013.4,1,2,"",90
"2022-06-19 02:57:00",10.2,8.6,0.0,0.0,0,1013.5,1,2,"",90
"2022-06-19 02:58:00",10.1,8.7,0.0,0.0,0,1013.5,1,2,"",91
"2022-06-19 02:59:00",10.2,8.8,0.0,0.0,0,1013.6,2,4,"",91
"2022-06-19 03:00:00",10.1,8.7,0.0,0.0,0,1013.5,0,1,"",91
"2022-06-19 03:01:00",10.1,8.7,0.0,0.0,0,1013.5,1,1,"",91
"2022-06-19 03:02:00",10.2,8.8,0.0,0.0,0,1013.5,1,3,"",91
"2022-06-19 03:03:00",10.2,8.8,0.0,0.0,0,1013.5,0,1,"",91
"2022-06-19 03:04:00",10.2,8.8,0.0,0.0,0,1013.4,1,2,"",91
"2022-06-19 03:05:00",10.2,8.8,0.0,0.0,0,1013.4,1,2,"",91
"2022-06-19 03:06:00",10.2,8.8,0.0,0.0,0,1013.5,1,2,"",91
"2022-06-19 03:07:00",10.2,8.6,0.0,0.0,0,1013.6,1,2,"",90
"2022-06-19 03:08:00",10.2,8.8,0.0,0.0,0,1013.6,1,3,"",91
"2022-06-19 03:09:00",10.2,8.8,0.0,0.0,0,1013.5,1,2,"",91
"2022-06-19 03:10:00",10.2,8.8,0.0,0.0,0,1013.4,1,2,"",91
"2022-06-19 03:11:00",10.2,8.8,0.0,0.0,0,1013.4,1,2,"",91
"2022-06-19 03:12:00",10.2,8.8,0.0,0.0,0,1013.4,2,3,"",91
"2022-06-19 03:13:00",10.2,8.8,0.0,0.0,0,1013.4,2,3,"",91
"2022-06-19 03:14:00",10.2,8.6,0.0,0.0,0,1013.3,1,1,"",90
"2022-06-19 03:15:00",10.2,8.8,0.0,0.0,0,1013.3,1,3,"",91
"2022-06-19 03:16:00",10.2,8.6,0.0,0.0,0,1013.3,1,2,"",90
"2022-06-19 03:17:00",10.2,8.8,0.0,0.0,0,1013.3,1,2,"",91
"2022-06-19 03:18:00",10.2,8.8,0.0,0.0,0,1013.3,1,5,"",91
"2022-06-19 03:19:00",10.2,8.6,0.0,0.0,0,1013.2,1,4,"",90
"2022-06-19 03:20:00",10.2,8.6,0.0,0.0,0,1013.2,1,2,"",90
"2022-06-19 03:21:00",10.2,8.6,0.0,0.0,0,1013.2,1,2,"",90
"2022-06-19 03:22:00",10.2,8.6,0.0,0.0,0,1013.3,1,2,"",90
"2022-06-19 03:23:00",10.2,8.6,0.0,0.0,0,1013.4,2,4,"",90
"2022-06-19 03:24:00",10.2,8.6,0.0,0.0,0,1013.5,1,3,"",90
"2022-06-19 03:25:00",10.2,8.6,0.0,0.0,0,1013.5,1,2,"",90
"2022-06-19 03:26:00",10.2,8.6,0.0,0.0,0,1013.5,1,2,"",90
"2022-06-19 03:27:00",10.2,8.6,0.0,0.0,0,1013.6,1,3,"",90
"2022-06-19 03:28:00",10.2,8.6,0.0,0.0,0,1013.6,2,4,"",90
"2022-06-19 03:29:00",10.3,8.6,0.0,0.0,0,1013.6,1,3,"",89
"2022-06-19 03:30:00",10.3,8.6,0.0,0.0,0,1013.7,1,2,"",89
"2022-06-19 03:31:00",10.3,8.7,0.0,0.0,0,1013.7,1,2,"",90
"2022-06-19 03:32:00",10.3,8.7,0.0,0.0,0,1013.7,1,2,"",90
"2022-06-19 03:33:00",10.3,8.7,0.0,0.0,0,1013.6,1,2,"",90
"2022-06-19 03:34:00",10.3,8.7,0.0,0.0,0,1013.6,1,2,"",90
"2022-06-19 03:35:00",10.3,8.7,0.0,0.0,0,1013.5,0,1,"",90
"2022-06-19 03:36:00",10.3,8.7,0.0,0.0,0,1013.5,1,2,"",90
"2022-06-19 03:37:00",10.3,8.7,0.0,0.0,0,1013.5,1,2,"",90
"2022-06-19 03:38:00",10.3,8.7,0.0,0.0,0,1013.5,1,2,"",90
"2022-06-19 03:39:00",10.3,8.7,0.0,0.0,0,1013.6,1,1,"",90
"2022-06-19 03:40:00",10.3,8.7,0.0,0.0,0,1013.7,0,1,"",90
"2022-06-19 03:41:00",10.3,8.7,0.0,0.0,0,1013.7,1,2,"",90
"2022-06-19 03:42:00",10.3,8.7,0.0,0.0,0,1013.7,1,2,"",90
"2022-06-19 03:43:00",10.3,8.7,0.0,0.0,0,1013.6,1,1,"",90
"2022-06-19 03:44:00",10.3,8.7,0.0,0.0,0,1013.6,1,1,"",90
"2022-06-19 03:45:00",10.3,8.7,0.0,0.0,0,1013.5,1,2,"",90
"2022-06-19 03:46:00",10.4,8.8,0.0,0.0,0,1013.4,1,2,"",90
"2022-06-19 03:47:00",10.4,8.8,0.0,0.0,0,1013.4,0,1,"",90
"2022-06-19 03:48:00",10.4,8.8,0.0,0.0,0,1013.5,1,2,"",90
"2022-06-19 03:49:00",10.4,8.8,0.0,0.0,0,1013.5,1,2,"",90
"2022-06-19 03:50:00",10.4,8.8,0.0,0.0,0,1013.5,1,2,"",90
"2022-06-19 03:51:00",10.4,8.8,0.0,0.0,0,1013.4,1,1,"",90
"2022-06-19 03:52:00",10.4,8.8,0.0,0.0,0,1013.4,1,2,"",90
"2022-06-19 03:53:00",10.4,8.8,0.0,0.0,0,1013.4,1,2,"",90
"2022-06-19 03:54:00",10.4,8.8,0.0,0.0,0,1013.4,1,2,"",90
"2022-06-19 03:55:00",10.4,8.8,0.0,0.0,0,1013.4,1,2,"",90
"2022-06-19 03:56:00",10.4,8.8,0.0,0.0,0,1013.4,1,2,"",90
"2022-06-19 03:57:00",10.5,8.9,0.0,0.0,0,1013.5,1,1,"",90
"2022-06-19 03:58:00",10.5,8.9,0.0,0.0,0,1013.5,1,2,"",90
"2022-06-19 03:59:00",10.5,8.9,0.0,0.0,0,1013.5,1,2,"",90
"2022-06-19 04:00:00",10.4,8.8,0.0,0.0,0,1013.5,1,2,"",90
"2022-06-19 04:01:00",10.4,8.8,0.0,0.0,0,1013.6,2,3,"",90
"2022-06-19 04:02:00",10.4,8.8,0.0,0.0,0,1013.6,1,2,"",90
"2022-06-19 04:03:00",10.4,8.8,0.0,0.0,0,1013.7,0,1,"",90
"2022-06-19 04:04:00",10.4,8.8,0.0,0.0,0,1013.6,1,2,"",90
"2022-06-19 04:05:00",10.4,8.8,0.0,0.0,0,1013.6,1,3,"",90
"2022-06-19 04:06:00",10.4,8.8,0.0,0.0,0,1013.7,0,2,"",90
"2022-06-19 04:07:00",10.4,9.0,0.0,0.0,0,1013.8,0,2,"",91
"2022-06-19 04:08:00",10.5,9.1,0.0,0.0,0,1013.9,1,2,"",91
"2022-06-19 04:09:00",10.5,9.1,0.0,0.0,0,1013.8,1,2,"",91
"2022-06-19 04:10:00",10.4,9.0,0.0,0.0,0,1013.8,1,2,"",91
"2022-06-19 04:11:00",10.4,9.0,0.0,0.0,0,1013.8,1,3,"",91
"2022-06-19 04:12:00",10.4,8.8,0.0,0.0,0,1013.8,1,2,"",90
"2022-06-19 04:13:00",10.4,9.0,0.0,0.0,0,1013.8,0,0,"",91
"2022-06-19 04:14:00",10.4,9.0,0.0,0.0,0,1013.8,0,1,"",91
"2022-06-19 04:15:00",10.4,9.0,0.0,0.0,0,1013.8,1,1,"",91
"2022-06-19 04:16:00",10.4,9.0,0.0,0.0,0,1013.7,1,2,"",91
"2022-06-19 04:17:00",10.4,9.0,0.0,0.0,0,1013.6,2,3,"",91
"2022-06-19 04:18:00",10.4,9.0,0.0,0.0,0,1013.6,1,2,"",91
"2022-06-19 04:19:00",10.3,8.9,0.0,0.0,0,1013.5,0,1,"",91
"2022-06-19 04:20:00",10.3,8.9,0.0,0.0,0,1013.5,0,1,"",91
"2022-06-19 04:21:00",10.3,8.9,0.0,0.0,0,1013.5,0,2,"",91
"2022-06-19 04:22:00",10.3,8.9,0.0,0.0,0,1013.5,0,2,"",91
"2022-06-19 04:23:00",10.3,8.9,0.0,0.0,0,1013.6,1,2,"",91
"2022-06-19 04:24:00",10.4,9.0,0.0,0.0,0,1013.5,0,1,"",91
"2022-06-19 04:25:00",10.4,9.0,0.0,0.0,0,1013.5,0,1,"",91
"2022-06-19 04:26:00",10.4,9.0,0.0,0.0,0,1013.6,1,2,"",91
"2022-06-19 04:27:00",10.4,9.0,0.0,0.0,0,1013.6,0,2,"",91
"2022-06-19 04:28:00",10.4,9.0,0.0,0.0,0,1013.6,1,2,"",91
"2022-06-19 04:29:00",10.3,8.9,0.0,0.0,0,1013.7,1,2,"",91
"2022-06-19 04:30:00",10.3,8.9,0.0,0.0,0,1013.7,1,2,"",91
"2022-06-19 04:31:00",10.4,9.0,0.0,0.0,0,1013.7,1,2,"",91
"2022-06-19 04:32:00",10.4,9.0,0.0,0.0,0,1013.7,1,2,"",91
"2022-06-19 04:33:00",10.4,9.0,0.0,0.0,0,1013.8,1,1,"",91
"2022-06-19 04:34:00",10.4,9.0,0.0,0.0,0,1013.8,1,2,"",91
"2022-06-19 04:35:00",10.4,9.0,0.0,0.0,0,1013.8,0,1,"",91
"2022-06-19 04:36:00",10.4,9.0,0.0,0.0,0,1013.7,1,4,"",91
"2022-06-19 04:37:00",10.4,9.0,0.0,0.0,0,1013.7,1,3,"",91
"2022-06-19 04:38:00",10.4,9.0,0.0,0.0,0,1013.7,1,2,"",91
"2022-06-19 04:39:00",10.4,9.0,0.0,0.0,0,1013.7,0,1,"",91
"2022-06-19 04:40:00",10.4,9.0,0.0,0.0,0,1013.7,0,1,"",91
"2022-06-19 04:41:00",10.5,9.1,0.0,0.0,0,1013.8,0,1,"",91
"2022-06-19 04:42:00",10.5,9.1,0.0,0.0,0,1013.9,1,2,"",91
"2022-06-19 04:43:00",10.5,9.1,0.0,0.0,0,1013.9,0,1,"",91
"2022-06-19 04:44:00",10.4,9.0,0.0,0.0,0,1013.9,0,1,"",91
"2022-06-19 04:45:00",10.4,9.0,0.0,0.0,0,1014.0,1,2,"",91
"2022-06-19 04:46:00",10.5,9.1,0.0,0.0,0,1013.9,1,1,"",91
"2022-06-19 04:47:00",10.4,9.0,0.0,0.0,0,1013.9,1,1,"",91
"2022-06-19 04:48:00",10.5,9.1,0.0,0.0,0,1014.0,0,1,"",91
"2022-06-19 04:49:00",10.5,9.1,0.0,0.0,0,1013.9,1,2,"",91
"2022-06-19 04:50:00",10.5,9.1,0.0,0.0,0,1014.0,0,1,"",91
"2022-06-19 04:51:00",10.5,9.1,0.0,0.0,0,1014.0,0,2,"",91
"2022-06-19 04:52:00",10.5,9.1,0.0,0.0,0,1014.0,1,2,"",91
"2022-06-19 04:53:00",10.5,9.1,0.0,0.0,0,1014.0,0,1,"",91
"2022-06-19 04:54:00",10.5,9.1,0.0,0.0,0,1014.0,0,1,"",91
"2022-06-19 04:55:00",10.6,9.2,0.0,0.0,0,1014.0,0,1,"",91
"2022-06-19 04:56:00",10.6,9.2,0.0,0.0,0,1014.0,0,1,"",91
"2022-06-19 04:57:00",10.5,9.1,0.0,0.0,0,1014.1,0,1,"",91
"2022-06-19 04:58:00",10.6,9.2,0.0,0.0,0,1014.1,0,1,"",91
"2022-06-19 04:59:00",10.6,9.2,0.0,0.0,0,1014.1,1,2,"",91
"2022-06-19 05:00:00",10.6,9.2,0.0,0.0,0,1014.1,0,1,"",91
"2022-06-19 05:01:00",10.6,9.2,0.0,0.0,0,1014.1,0,1,"",91
"2022-06-19 05:02:00",10.6,9.2,0.0,0.0,0,1014.2,1,4,"",91
"2022-06-19 05:03:00",10.6,9.2,0.0,0.0,0,1014.1,1,3,"",91
"2022-06-19 05:04:00",10.6,9.2,0.0,0.0,0,1014.2,0,2,"",91
"2022-06-19 05:05:00",10.6,9.2,0.0,0.0,0,1014.2,1,2,"",91
"2022-06-19 05:06:00",10.6,9.2,0.0,0.0,0,1014.1,1,1,"",91
"2022-06-19 05:07:00",10.6,9.0,0.0,0.0,0,1014.1,0,1,"",90
"2022-06-19 05:08:00",10.6,9.0,0.0,0.0,0,1014.2,0,1,"",90
"2022-06-19 05:09:00",10.7,9.1,0.0,0.0,0,1014.3,0,1,"",90
"2022-06-19 05:10:00",10.7,9.3,0.0,0.0,0,1014.3,0,0,"",91
"2022-06-19 05:11:00",10.7,9.3,0.0,0.0,0,1014.4,1,2,"",91
"2022-06-19 05:12:00",10.7,9.3,0.0,0.0,0,1014.5,1,3,"",91
"2022-06-19 05:13:00",10.6,9.2,0.0,0.0,0,1014.5,1,2,"",91
"2022-06-19 05:14:00",10.6,9.2,0.0,0.0,0,1014.5,0,1,"",91
"2022-06-19 05:15:00",10.6,9.2,0.0,0.0,0,1014.5,1,1,"",91
"2022-06-19 05:16:00",10.6,9.2,0.0,0.0,0,1014.5,1,1,"",91
"2022-06-19 05:17:00",10.6,9.2,0.0,0.0,0,1014.5,1,2,"",91
"2022-06-19 05:18:00",10.6,9.2,0.0,0.0,0,1014.5,1,3,"",91
"2022-06-19 05:19:00",10.6,9.2,0.0,0.0,0,1014.5,1,3,"",91
"2022-06-19 05:20:00",10.6,9.2,0.0,0.0,0,1014.4,0,1,"",91
"2022-06-19 05:21:00",10.6,9.2,0.0,0.0,0,1014.5,0,1,"",91
"2022-06-19 05:22:00",10.6,9.2,0.0,0.0,0,1014.5,0,1,"",91
"2022-06-19 05:23:00",10.7,9.3,0.0,0.0,0,1014.5,0,1,"",91
"2022-06-19 05:24:00",10.6,9.2,0.0,0.0,0,1014.5,1,2,"",91
"2022-06-19 05:25:00",10.6,9.2,0.0,0.0,0,1014.5,1,2,"",91
"2022-06-19 05:26:00",10.6,9.2,0.0,0.0,0,1014.5,0,1,"",91
"2022-06-19 05:27:00",10.6,9.2,0.0,0.0,0,1014.4,1,2,"",91
"2022-06-19 05:28:00",10.6,9.2,0.0,0.0,5,1014.4,1,2,"",91
"2022-06-19 05:29:00",10.7,9.3,0.0,0.0,5,1014.4,1,2,"",91
"2022-06-19 05:30:00",10.7,9.3,0.0,0.0,5,1014.4,0,1,"",91
"2022-06-19 05:31:00",10.7,9.3,0.0,0.0,5,1014.4,0,1,"",91
"2022-06-19 05:32:00",10.7,9.3,0.0,0.0,5,1014.3,0,2,"",91
"2022-06-19 05:33:00",10.7,9.3,0.0,0.0,7,1014.4,1,1,"",91
"2022-06-19 05:34:00",10.7,9.3,0.0,0.0,7,1014.3,1,2,"",91
"2022-06-19 05:35:00",10.7,9.3,0.0,0.0,7,1014.3,0,1,"",91
"2022-06-19 05:36:00",10.7,9.3,0.0,0.0,9,1014.2,1,1,"",91
"2022-06-19 05:37:00",10.7,9.3,0.0,0.0,11,1014.2,0,1,"",91
"2022-06-19 05:38:00",10.7,9.3,0.0,0.0,11,1014.2,0,1,"",91
"2022-06-19 05:39:00",10.7,9.3,0.0,0.0,11,1014.2,0,1,"",91
"2022-06-19 05:40:00",10.7,9.3,0.0,0.0,9,1014.3,0,1,"",91
"2022-06-19 05:41:00",10.7,9.3,0.0,0.0,9,1014.3,1,2,"",91
"2022-06-19 05:42:00",10.7,9.3,0.0,0.0,7,1014.3,1,2,"",91
"2022-06-19 05:43:00",10.7,9.3,0.0,0.0,7,1014.3,1,2,"",91
"2022-06-19 05:44:00",10.7,9.3,0.0,0.0,7,1014.4,1,2,"",91
"2022-06-19 05:45:00",10.8,9.4,0.0,0.0,7,1014.3,1,2,"",91
"2022-06-19 05:46:00",10.7,9.3,0.0,0.0,9,1014.3,0,1,"",91
"2022-06-19 05:47:00",10.7,9.3,0.0,0.0,9,1014.2,1,3,"",91
"2022-06-19 05:48:00",10.7,9.3,0.0,0.0,11,1014.3,1,3,"",91
"2022-06-19 05:49:00",10.8,9.2,0.0,0.0,12,1014.3,1,2,"",90
"2022-06-19 05:50:00",10.8,9.2,0.0,0.0,12,1014.3,1,2,"",90
"2022-06-19 05:51:00",10.8,9.2,0.0,0.0,12,1014.3,1,2,"",90
"2022-06-19 05:52:00",10.8,9.2,0.0,0.0,14,1014.2,1,1,"",90
"2022-06-19 05:53:00",10.8,9.2,0.0,0.0,14,1014.2,0,1,"",90
"2022-06-19 05:54:00",10.8,9.2,0.0,0.0,16,1014.2,1,2,"",90
"2022-06-19 05:55:00",10.8,9.2,0.0,0.0,18,1014.2,1,2,"",90
"2022-06-19 05:56:00",10.8,9.2,0.0,0.0,19,1014.1,1,2,"",90
"2022-06-19 05:57:00",10.8,9.2,0.0,0.0,21,1014.1,1,2,"",90
"2022-06-19 05:58:00",10.8,9.2,0.0,0.0,23,1014.0,1,3,"",90
"2022-06-19 05:59:00",10.8,9.2,0.0,0.0,25,1013.7,1,2,"",90
"2022-06-19 06:00:00",10.8,9.2,0.0,0.0,32,1013.6,1,2,"",90
"2022-06-19 06:01:00",10.9,9.3,0.0,0.0,37,1013.4,1,2,"",90
"2022-06-19 06:02:00",10.9,9.3,0.0,0.0,42,1013.3,2,2,"",90
"2022-06-19 06:03:00",10.9,9.3,0.0,0.0,49,1013.3,1,2,"",90
"2022-06-19 06:04:00",10.9,9.3,0.0,0.0,53,1013.4,1,2,"",90
"2022-06-19 06:05:00",10.9,9.3,0.0,0.0,51,1013.6,1,2,"",90
"2022-06-19 06:06:00",10.9,9.3,0.0,0.0,40,1013.7,1,1,"",90
"2022-06-19 06:07:00",11.0,9.4,0.0,0.0,37,1013.8,1,2,"",90
"2022-06-19 06:08:00",10.9,9.2,0.0,0.0,33,1013.9,1,3,"",89
"2022-06-19 06:09:00",11.0,9.3,0.0,0.0,32,1013.9,1,2,"",89
"2022-06-19 06:10:00",11.0,9.3,0.0,0.0,32,1013.9,1,2,"",89
"2022-06-19 06:11:00",11.0,9.3,0.0,0.0,33,1013.8,1,2,"",89
"2022-06-19 06:12:00",11.1,9.4,0.0,0.0,35,1013.9,0,1,"",89
"2022-06-19 06:13:00",11.1,9.4,0.0,0.0,39,1013.9,0,1,"",89
"2022-06-19 06:14:00",11.1,9.4,0.0,0.0,40,1013.9,1,1,"",89
"2022-06-19 06:15:00",11.1,9.4,0.0,0.0,40,1013.9,1,2,"",89
"2022-06-19 06:16:00",11.2,9.6,0.0,0.0,40,1013.9,1,2,"",90
"2022-06-19 06:17:00",11.2,9.6,0.0,0.0,37,1014.0,0,2,"",90
"2022-06-19 06:18:00",11.2,9.6,0.0,0.0,33,1014.0,2,2,"",90
"2022-06-19 06:19:00",11.2,9.6,0.0,0.0,33,1014.0,1,3,"",90
"2022-06-19 06:20:00",11.2,9.6,0.0,0.0,37,1014.1,1,2,"",90
"2022-06-19 06:21:00",11.2,9.6,0.0,0.0,39,1014.1,1,2,"",90
"2022-06-19 06:22:00",11.2,9.6,0.0,0.0,40,1014.2,1,2,"",90
"2022-06-19 06:23:00",11.3,9.7,0.0,0.0,44,1014.2,2,3,"",90
"2022-06-19 06:24:00",11.2,9.5,0.0,0.0,47,1014.2,2,3,"",89
"2022-06-19 06:25:00",11.2,9.5,0.0,0.0,49,1014.3,1,3,"",89
"2022-06-19 06:26:00",11.2,9.5,0.0,0.0,53,1014.3,1,3,"",89
"2022-06-19 06:27:00",11.2,9.5,0.0,0.0,56,1014.3,1,2,"",89
"2022-06-19 06:28:00",11.2,9.5,0.0,0.0,62,1014.3,1,3,"",89
"2022-06-19 06:29:00",11.3,9.6,0.0,0.0,70,1014.2,1,1,"",89
"2022-06-19 06:30:00",11.2,9.5,0.0,0.0,74,1014.2,0,2,"",89
"2022-06-19 06:31:00",11.3,9.6,0.0,0.0,77,1014.1,1,2,"",89
"2022-06-19 06:32:00",11.3,9.6,0.0,0.0,81,1014.0,1,2,"",89
"2022-06-19 06:33:00",11.3,9.6,0.0,0.0,83,1013.9,1,2,"",89
"2022-06-19 06:34:00",11.4,9.7,0.0,0.0,83,1013.9,1,2,"",89
"2022-06-19 06:35:00",11.4,9.7,0.0,0.0,86,1013.9,1,1,"",89
"2022-06-19 06:36:00",11.4,9.5,0.0,0.0,86,1013.8,1,2,"",88
"2022-06-19 06:37:00",11.4,9.7,0.0,0.0,86,1013.8,1,2,"",89
"2022-06-19 06:38:00",11.4,9.7,0.0,0.0,86,1013.9,1,2,"",89
"2022-06-19 06:39:00",11.4,9.5,0.0,0.0,83,1013.9,1,2,"",88
"2022-06-19 06:40:00",11.5,9.6,0.0,0.0,79,1013.8,1,2,"",88
"2022-06-19 06:41:00",11.5,9.6,0.0,0.0,77,1013.8,2,3,"",88
"2022-06-19 06:42:00",11.6,9.7,0.0,0.0,76,1013.6,1,2,"",88
"2022-06-19 06:43:00",11.6,9.7,0.0,0.0,76,1013.6,1,2,"",88
"2022-06-19 06:44:00",11.6,9.7,0.0,0.0,76,1013.4,1,4,"",88
"2022-06-19 06:45:00",11.6,9.7,0.0,0.0,76,1013.4,2,3,"",88
"2022-06-19 06:46:00",11.7,9.8,0.0,0.0,77,1013.4,1,2,"",88
"2022-06-19 06:47:00",11.7,9.8,0.0,0.0,79,1013.4,1,2,"",88
"2022-06-19 06:48:00",11.7,9.8,0.0,0.0,79,1013.4,1,1,"",88
"2022-06-19 06:49:00",11.8,9.9,0.0,0.0,79,1013.5,1,2,"",88
"2022-06-19 06:50:00",11.7,9.8,0.0,0.0,79,1013.4,1,4,"",88